User: anonymous   Login
Location: Abyssinia Baptist Church
(32.7840°N, 96.7578°W)
Time: 02:39:14
(UTC+00:00)
Language:

SKYMED 2 - Orbit

View from above orbital plane
View from above orbital plane
View from above satellite
View from above satellite

Ground track
Ground track

The orbit data is extracted from the following two-line orbital elements,

1 32376U 07059A   22145.48196374  .00000873  00000-0  11612-3 0  9990
2 32376  97.8886 329.4759 0001451  92.7109 267.4261 14.82166130782307
Epoch (UTC): 25 May 2022 11:34:01
Eccentricity: 0.0001451
inclination: 97.8886°
perigee height: 621 km
apogee height: 623 km
right ascension of ascending node: 329.4759°
argument of perigee: 92.7109°
revolutions per day: 14.82166130
mean anomaly at epoch: 267.4261°
orbit number at epoch: 78230

The dashed part of the orbit path shows where the satellite is in the earth's shadow,  

DLR